Wind_Speed
6 6 6 7 7 9 7 1 6 6 7 6 4 4 4 5 4 4 4 5 5 5 5 4 4 5 5 5 5 4 4 4 3 3 3 3 3 3 3 2 3 3 3 3 2 2 2 2 2
6 6 6 6 6 6 2 4 7 7 7 6 5 5 5 5 4 4 5 5 5 5 5 5 5 6 6 6 6 5 5 5 4 4 4 4 4 4 4 4 3 3 4 3 3 3 3 3 3
6 6 5 5 4 3 3 7 8 8 7 6 6 6 6 5 5 5 5 6 5 5 5 6 6 6 6 6 6 6 6 5 5 5 4 4 5 5 5 5 4 4 5 5 4 4 4 4 3
7 6 4 3 2 2 6 9 9 8 6 6 7 8 7 6 5 6 6 6 5 5 6 6 6 6 6 7 7 7 7 6 6 6 5 5 5 6 6 5 5 5 5 6 6 5 5 5 5
8 6 5 2 3 6 8 11 10 8 8 7 8 8 9 8 6 7 7 6 6 6 6 7 7 7 7 8 8 8 8 8 8 7 6 6 6 6 6 6 6 5 6 6 6 6 6 6 6
8 7 5 4 8 9 10 11 10 8 9 9 9 9 9 9 9 8 8 7 7 7 7 7 8 8 8 8 9 9 8 8 7 7 7 7 7 6 6 6 6 6 6 7 7 7 6 6 7
9 7 7 7 9 11 11 10 9 9 9 10 9 9 10 10 10 9 9 9 9 8 7 8 8 9 9 9 9 9 8 8 7 7 7 7 7 8 8 7 7 7 7 7 7 7 8 7 7
10 9 8 7 9 12 13 10 11 9 9 10 10 11 11 10 11 10 10 9 10 9 8 9 9 9 9 9 9 9 9 8 8 8 8 8 8 8 8 8 8 8 7 7 7 7 8 9 9
11 11 8 9 10 11 13 11 10 11 10 11 12 12 12 11 11 11 11 10 10 10 10 9 9 9 10 10 10 9 9 8 8 8 8 8 8 8 8 8 8 8 8 8 8 8 8 8 9
11 11 9 11 11 13 13 12 10 11 11 11 13 13 13 12 13 12 12 11 10 10 10 9 10 10 10 10 10 10 9 8 9 9 9 9 9 9 8 8 8 9 9 8 8 8 8 8 8
12 12 12 14 13 14 13 13 12 11 11 12 13 13 13 13 13 12 12 12 12 11 11 10 10 11 11 11 11 11 10 9 9 9 9 10 10 10 9 9 9 10 10 9 9 9 9 8 8
13 13 13 15 15 15 14 14 13 13 13 15 14 12 12 12 13 14 13 12 12 11 10 11 10 11 11 11 12 11 12 11 10 10 10 10 11 11 11 10 10 10 10 11 10 10 10 10 9
13 14 16 17 17 16 15 15 14 14 14 15 15 14 12 12 12 13 13 12 12 12 11 12 12 12 12 12 12 12 12 12 11 11 11 11 11 11 11 11 11 11 11 11 11 11 11 10 10
15 15 15 16 15 14 14 14 15 14 14 15 15 14 14 13 13 13 13 12 12 12 11 12 12 13 13 13 12 13 13 13 13 13 12 12 12 12 12 12 12 12 12 12 12 12 12 12 12
16 15 15 15 14 14 15 14 13 13 14 15 15 14 14 14 14 13 13 13 13 12 12 13 13 14 14 14 13 13 14 14 14 13 12 12 12 12 13 13 12 12 12 12 12 13 13 13 13
15 15 15 14 14 14 15 14 13 13 14 15 15 15 14 15 15 14 13 14 13 13 13 13 14 14 14 14 14 14 14 15 14 13 13 13 14 14 14 13 13 13 13 13 13 14 15 14 14
15 14 14 15 14 14 15 15 13 14 14 15 15 16 16 15 15 16 15 15 15 15 14 14 15 15 15 15 15 15 15 15 15 14 14 13 14 14 14 14 13 14 14 14 14 14 14 14 15
14 13 14 15 15 15 17 16 14 15 15 16 17 17 17 17 17 17 16 16 17 16 15 15 15 16 15 16 16 16 16 16 16 15 15 15 15 15 15 14 14 14 15 14 14 14 14 15 15
14 15 15 16 16 16 17 17 17 16 17 17 18 18 17 18 18 17 17 17 18 17 16 16 16 16 16 16 16 16 16 16 16 16 16 16 15 15 15 15 15 15 16 16 15 15 15 16 16
16 16 16 16 16 17 18 18 17 18 17 18 18 18 19 19 19 18 18 18 19 18 17 17 17 17 17 17 16 16 16 17 16 16 16 16 16 17 17 17 16 16 16 16 16 16 16 17 17
18 17 16 16 17 18 19 19 18 18 18 19 19 19 19 18 18 18 18 19 19 18 17 17 17 17 18 18 18 18 17 17 17 16 16 17 17 18 19 18 17 17 17 17 17 17 17 17 17
18 17 16 17 19 18 18 20 18 18 20 20 19 19 19 18 18 18 19 18 18 19 19 18 18 18 17 17 18 17 17 18 17 18 18 19 19 19 19 19 19 18 18 18 19 18 18 18 18
19 19 19 19 20 20 18 19 20 18 20 20 19 19 19 19 18 18 19 19 19 19 19 18 19 19 18 18 17 18 18 18 18 18 19 20 20 19 20 21 20 19 19 19 20 20 19 18 18
19 19 20 20 20 22 19 20 21 21 21 20 20 20 19 19 19 19 19 19 19 19 19 18 18 18 18 18 18 18 18 18 19 19 20 20 20 20 20 21 19 19 19 19 19 19 19 19 19
20 19 19 19 19 20 18 21 22 21 22 21 21 20 19 20 20 20 20 20 19 19 18 18 18 17 17 18 19 19 19 19 20 20 20 20 21 21 20 19 19 20 19 19 19 19 20 20 19
20 20 20 18 17 18 18 21 20 21 22 22 20 20 20 20 20 20 19 19 19 19 18 18 19 18 18 19 19 20 20 20 20 20 21 21 21 21 20 19 19 21 20 20 20 20 20 20 20
21 21 20 18 18 19 19 21 21 22 21 22 21 20 19 20 20 19 19 18 19 19 19 20 19 20 20 20 20 20 20 21 21 21 21 21 21 21 20 19 18 18 19 19 19 20 20 20 20
21 20 19 20 20 21 20 20 22 22 21 22 22 20 19 20 20 19 20 19 20 19 19 19 20 20 21 21 20 20 21 21 21 22 21 21 21 20 20 18 18 18 18 18 18 18 19 19 20
21 22 22 23 22 21 21 21 21 23 23 22 21 18 18 20 20 19 19 20 21 20 18 18 20 20 21 21 21 21 20 21 21 21 21 20 20 20 19 19 19 19 19 19 18 17 17 18 18
21 21 23 24 24 23 22 24 22 23 23 23 21 20 20 20 20 20 20 20 20 20 20 19 20 20 20 21 22 21 21 21 21 21 21 20 20 19 20 19 19 19 19 18 17 17 17 17 18
Wind_Direction
127 117 116 115 102 80 76 341 268 265 263 269 278 272 276 290 302 319 329 335 345 345 336 332 337 343 344 344 344 331 319 313 309 300 287 278 281 288 278 262 250 247 244 237 228 226 227 233 245
138 132 128 119 95 75 75 262 260 258 264 275 275 274 275 286 290 300 318 327 334 333 329 333 328 328 330 331 331 326 315 309 308 302 291 283 281 281 283 275 272 262 256 251 245 240 244 245 255
159 157 137 123 102 106 235 254 254 254 267 271 269 273 283 290 293 300 310 317 326 327 325 332 331 328 328 329 326 322 317 312 308 298 291 288 283 283 284 281 278 271 264 257 253 255 253 246 247
173 163 148 129 91 256 255 260 264 265 269 276 279 280 285 289 296 299 304 310 316 322 324 323 324 326 328 329 323 317 311 308 302 296 290 290 283 284 283 280 279 273 267 261 259 261 255 249 246
183 171 163 179 247 254 263 265 267 268 272 278 278 282 286 289 293 295 301 308 315 320 324 318 316 325 326 325 322 316 308 305 299 292 288 289 289 282 279 279 278 275 270 264 260 261 258 251 246
194 186 177 200 254 251 253 264 273 272 274 275 280 285 280 287 293 293 293 299 306 315 323 320 320 324 326 325 322 317 309 306 301 294 293 292 292 290 287 285 278 274 271 269 262 258 258 255 249
205 203 195 215 250 261 254 263 264 263 271 275 280 284 282 287 292 289 288 296 301 306 313 316 319 321 323 325 325 319 309 305 299 297 296 291 288 287 287 285 281 272 270 270 267 262 261 255 248
211 214 207 213 245 262 267 270 270 266 263 271 274 277 284 289 286 283 289 294 299 301 306 313 317 320 320 322 325 321 313 305 299 297 296 293 291 288 285 285 282 274 272 271 272 266 263 260 254
216 220 219 217 231 255 271 273 270 272 268 272 277 279 280 281 283 286 288 291 296 298 305 309 311 313 317 319 321 320 317 309 302 297 294 293 291 286 282 281 279 276 275 273 272 268 260 257 254
215 219 224 235 235 245 260 269 268 271 271 269 271 274 277 275 280 284 288 294 297 298 302 306 307 309 314 317 319 317 315 309 301 295 295 297 293 288 283 277 280 272 274 275 272 265 262 262 261
219 225 223 233 243 251 258 266 266 265 267 269 270 274 277 279 280 286 293 295 295 295 300 305 307 308 311 314 316 316 311 307 304 298 297 298 297 294 288 281 280 279 278 276 271 268 266 266 265
228 227 226 235 245 251 255 258 259 257 259 264 270 278 281 282 279 284 291 294 295 291 296 300 304 307 308 311 313 315 313 307 304 301 299 301 300 295 289 282 279 278 277 274 270 269 264 263 261
233 235 235 241 247 250 255 259 261 262 265 269 276 280 280 282 283 281 283 285 290 293 298 299 302 306 307 308 308 310 310 306 302 303 298 297 297 294 289 285 281 277 275 272 269 266 263 264 264
234 238 240 247 253 256 258 262 268 269 265 267 273 278 278 284 282 278 278 281 286 290 294 296 299 304 306 307 306 306 308 304 304 305 301 295 296 293 290 286 283 280 277 273 269 268 266 265 264
233 240 244 250 253 258 260 264 270 273 270 269 272 276 280 281 282 276 274 277 282 287 293 296 298 302 305 307 305 305 307 306 306 306 303 297 295 294 291 287 282 279 278 275 272 268 269 266 264
235 241 247 252 254 260 263 265 271 274 274 274 274 274 277 275 281 280 275 274 278 282 288 294 296 297 301 303 304 304 304 306 303 304 305 300 295 293 291 286 282 278 278 277 276 271 271 270 266
237 247 254 258 262 264 264 267 266 273 273 276 275 276 276 276 278 280 279 275 279 280 284 290 292 295 299 301 301 303 305 307 305 305 306 300 295 292 290 286 284 281 280 278 276 272 270 268 268
235 244 252 256 262 263 266 268 265 270 271 273 276 276 277 279 278 278 279 274 279 278 282 286 288 291 296 299 298 300 301 304 303 303 306 303 298 294 290 287 283 277 276 275 274 275 274 271 270
231 241 241 244 251 258 266 267 262 262 268 271 275 278 276 278 281 279 280 277 278 279 280 282 285 289 293 295 296 299 300 301 302 301 300 299 298 295 291 289 286 279 276 274 273 274 273 273 272
231 237 242 249 257 260 262 266 266 265 268 275 276 277 274 274 278 279 280 279 279 280 281 281 283 287 291 293 294 295 296 299 301 301 299 296 297 296 293 292 288 283 277 274 271 272 273 274 273
235 238 239 244 257 261 265 268 269 271 270 273 274 274 272 274 275 275 277 277 276 278 279 282 284 285 287 290 291 292 295 299 302 301 299 298 296 294 292 290 289 285 278 274 272 273 273 272 274
241 241 241 243 252 259 267 272 271 272 273 275 275 274 274 272 272 275 274 274 274 275 277 280 283 284 287 290 292 293 295 296 299 300 300 298 297 293 290 290 287 282 279 276 275 275 273 271 271
239 239 241 244 250 252 259 268 273 273 271 275 274 272 270 269 270 274 276 274 272 274 278 279 280 282 284 286 291 295 296 297 297 297 299 299 301 299 294 289 286 283 279 276 275 273 271 269 269
239 242 248 250 252 255 258 263 266 268 272 272 270 268 271 272 271 272 275 273 273 275 279 280 278 279 281 283 287 293 296 296 297 298 300 300 299 299 296 291 287 285 282 278 276 271 270 269 269
239 239 248 253 255 260 260 258 262 264 269 269 270 269 272 271 273 273 271 271 273 275 277 280 278 279 282 285 287 290 292 294 297 299 301 302 302 301 297 295 285 283 281 278 276 272 270 269 268
241 238 240 245 254 261 257 257 259 258 264 265 268 268 268 271 272 271 270 271 273 273 274 276 278 280 284 286 286 287 290 292 295 299 301 303 303 304 300 296 292 285 280 278 274 271 270 269 267
239 237 237 242 249 256 255 256 260 258 261 266 267 266 269 272 271 268 267 266 271 271 275 275 277 279 283 286 285 284 287 290 294 298 300 304 306 307 306 301 297 292 286 282 276 271 269 268 267
238 237 232 234 246 254 256 257 264 265 264 267 269 269 270 272 272 271 270 266 271 270 274 276 280 280 282 285 285 284 285 288 292 296 299 302 306 308 310 303 298 297 291 287 281 276 273 269 266
237 236 235 236 239 250 257 254 259 266 267 269 271 274 274 273 274 270 267 269 271 273 275 279 283 284 284 284 285 285 285 287 292 295 297 299 303 306 308 306 300 298 295 290 285 278 274 270 268
239 238 238 238 238 241 252 259 258 263 266 268 271 273 272 271 273 269 268 269 271 275 276 279 286 288 287 285 285 285 285 287 289 292 293 295 299 302 305 307 302 297 296 293 289 280 272 270 267
Height
5889 5890 5891 5892 5893 5893 5894 5896 5895 5894 5893 5891 5891 5890 5889 5889 5889 5890 5888 5886 5886 5885 5884 5884 5883 5883 5882 5881 5881 5880 5879 5878 5878 5877 5877 5876 5876 5875 5875 5875 5874 5874 5874 5874 5874 5875 5875 5875 5875
5890 5890 5891 5892 5892 5893 5896 5896 5894 5893 5892 5891 5890 5889 5888 5888 5888 5887 5886 5886 5886 5885 5884 5884 5883 5883 5882 5881 5881 5880 5879 5878 5878 5877 5876 5876 5876 5875 5875 5874 5874 5874 5874 5874 5874 5874 5875 5875 5875
5889 5890 5891 5891 5892 5894 5895 5894 5892 5892 5891 5890 5889 5889 5889 5888 5888 5887 5887 5886 5886 5885 5884 5884 5883 5882 5881 5881 5880 5879 5879 5878 5877 5877 5876 5876 5875 5875 5875 5874 5874 5874 5874 5874 5874 5874 5874 5874 5875
5889 5890 5891 5892 5893 5894 5894 5893 5892 5891 5891 5890 5890 5889 5888 5887 5887 5887 5886 5886 5886 5885 5884 5883 5883 5882 5881 5880 5879 5879 5878 5877 5877 5876 5876 5875 5875 5874 5874 5874 5874 5873 5873 5873 5873 5873 5873 5874 5874
5887 5889 5891 5891 5893 5894 5894 5892 5891 5891 5890 5890 5889 5888 5888 5887 5887 5887 5886 5885 5885 5885 5884 5883 5882 5882 5881 5880 5879 5878 5877 5877 5876 5875 5875 5874 5874 5874 5873 5873 5873 5873 5873 5873 5873 5873 5873 5873 5873
5887 5888 5889 5892 5893 5893 5893 5892 5891 5891 5890 5889 5888 5888 5887 5887 5886 5886 5885 5885 5884 5884 5884 5882 5882 5881 5880 5879 5878 5877 5876 5876 5875 5874 5874 5874 5873 5873 5873 5872 5872 5872 5872 5872 5872 5872 5872 5871 5872
5886 5887 5888 5890 5892 5892 5891 5891 5890 5890 5889 5888 5888 5887 5886 5886 5885 5885 5884 5884 5883 5883 5883 5882 5881 5880 5879 5878 5877 5876 5875 5875 5874 5874 5873 5873 5872 5872 5872 5871 5871 5871 5871 5871 5871 5871 5871 5870 5871
5884 5886 5886 5888 5890 5890 5889 5889 5889 5888 5888 5887 5886 5886 5885 5885 5885 5883 5883 5883 5882 5882 5882 5881 5880 5879 5878 5877 5876 5875 5874 5873 5873 5873 5872 5872 5871 5871 5870 5870 5870 5870 5869 5869 5869 5870 5870 5869 5869
5882 5885 5885 5887 5888 5888 5888 5887 5887 5886 5886 5886 5885 5884 5884 5884 5883 5882 5881 5882 5882 5881 5880 5880 5879 5878 5877 5876 5875 5874 5873 5872 5872 5872 5871 5871 5870 5870 5869 5869 5868 5868 5868 5868 5868 5868 5868 5868 5868
5881 5882 5885 5885 5885 5886 5886 5886 5885 5885 5885 5884 5883 5883 5882 5883 5882 5881 5881 5880 5880 5880 5879 5879 5878 5877 5877 5876 5875 5873 5872 5872 5871 5871 5870 5869 5869 5868 5868 5867 5867 5866 5867 5867 5867 5867 5867 5867 5868
5878 5880 5881 5883 5883 5883 5883 5884 5883 5883 5883 5883 5882 5881 5881 5881 5880 5879 5879 5878 5878 5878 5878 5878 5877 5876 5876 5875 5874 5873 5872 5871 5870 5869 5868 5868 5867 5867 5866 5866 5865 5865 5865 5865 5865 5865 5865 5866 5866
5876 5877 5879 5880 5881 5881 5881 5881 5881 5881 5881 5880 5879 5879 5879 5879 5878 5877 5877 5877 5876 5875 5875 5875 5875 5875 5874 5874 5873 5871 5870 5869 5868 5868 5867 5866 5866 5865 5864 5864 5864 5864 5864 5863 5863 5864 5864 5864 5865
5873 5874 5876 5877 5878 5878 5878 5879 5879 5879 5879 5879 5877 5877 5877 5876 5876 5876 5875 5875 5875 5874 5873 5874 5874 5874 5873 5872 5871 5870 5869 5868 5867 5866 5865 5864 5864 5863 5862 5862 5862 5862 5862 5861 5862 5862 5862 5862 5863
5871 5872 5873 5874 5875 5875 5876 5876 5876 5876 5877 5876 5876 5875 5875 5874 5874 5874 5873 5873 5873 5872 5872 5872 5872 5872 5871 5870 5869 5868 5867 5866 5865 5864 5863 5862 5861 5861 5860 5860 5859 5859 5859 5859 5860 5860 5860 5860 5861
5867 5869 5870 5871 5872 5873 5873 5873 5873 5874 5874 5874 5873 5873 5872 5872 5872 5871 5871 5871 5871 5870 5870 5871 5870 5870 5869 5868 5867 5866 5865 5864 5863 5862 5861 5859 5859 5859 5858 5857 5857 5857 5857 5857 5857 5857 5857 5857 5858
5864 5866 5867 5868 5869 5870 5872 5871 5872 5871 5871 5871 5870 5870 5870 5870 5869 5868 5869 5869 5869 5869 5869 5869 5869 5868 5867 5866 5865 5864 5863 5862 5860 5860 5859 5857 5857 5856 5856 5855 5855 5854 5854 5854 5854 5854 5854 5855 5855
5861 5863 5864 5866 5867 5868 5868 5868 5869 5868 5869 5868 5868 5867 5867 5867 5867 5866 5867 5866 5867 5867 5867 5867 5866 5866 5865 5864 5863 5862 5861 5860 5858 5857 5856 5855 5854 5854 5853 5852 5852 5852 5851 5851 5851 5852 5851 5852 5852
5859 5861 5863 5864 5865 5866 5866 5865 5866 5865 5865 5865 5865 5865 5864 5864 5864 5864 5864 5863 5864 5864 5864 5864 5864 5863 5862 5861 5860 5859 5859 5858 5856 5855 5854 5853 5852 5851 5850 5849 5849 5848 5849 5848 5848 5848 5848 5849 5849
5857 5858 5860 5862 5863 5863 5863 5862 5863 5862 5862 5862 5862 5861 5861 5860 5860 5861 5860 5860 5860 5860 5861 5861 5861 5861 5860 5859 5858 5857 5856 5855 5854 5853 5852 5850 5849 5848 5847 5846 5845 5845 5845 5845 5845 5845 5845 5845 5845
5853 5855 5857 5858 5859 5860 5859 5859 5859 5858 5858 5858 5858 5858 5858 5858 5857 5857 5857 5857 5857 5857 5858 5858 5858 5858 5857 5856 5855 5854 5853 5852 5851 5850 5849 5847 5846 5844 5843 5842 5842 5841 5841 5841 5841 5841 5841 5841 5841
5849 5851 5853 5855 5856 5855 5856 5855 5855 5854 5854 5855 5854 5854 5854 5854 5854 5853 5854 5853 5854 5854 5854 5855 5854 5854 5854 5853 5852 5851 5850 5849 5848 5847 5845 5844 5842 5841 5839 5838 5838 5837 5837 5836 5836 5836 5836 5836 5836
5845 5847 5849 5850 5851 5852 5852 5851 5851 5850 5850 5850 5850 5850 5849 5849 5849 5850 5850 5850 5850 5850 5850 5851 5851 5850 5850 5849 5849 5848 5847 5846 5845 5843 5842 5840 5838 5836 5835 5834 5833 5832 5832 5831 5831 5831 5831 5831 5831
5841 5843 5844 5845 5846 5847 5847 5847 5848 5846 5845 5846 5846 5846 5846 5846 5845 5846 5845 5846 5846 5846 5846 5847 5847 5846 5846 5846 5845 5844 5843 5842 5841 5839 5838 5836 5834 5832 5831 5829 5828 5827 5827 5826 5826 5826 5825 5826 5826
5836 5838 5839 5840 5841 5841 5843 5844 5844 5842 5841 5841 5841 5841 5841 5841 5841 5841 5841 5841 5841 5841 5842 5842 5843 5842 5842 5841 5841 5840 5840 5838 5837 5836 5834 5832 5829 5828 5826 5824 5823 5822 5821 5821 5820 5820 5820 5820 5820
5831 5833 5835 5836 5836 5837 5839 5839 5839 5838 5837 5837 5836 5837 5837 5837 5837 5837 5837 5837 5837 5837 5837 5837 5838 5838 5837 5837 5837 5837 5836 5835 5833 5831 5830 5827 5825 5823 5821 5819 5818 5817 5816 5815 5815 5815 5814 5814 5815
5826 5828 5831 5832 5834 5834 5834 5833 5834 5834 5833 5832 5832 5832 5832 5832 5832 5832 5832 5832 5832 5832 5832 5833 5833 5833 5833 5833 5833 5832 5831 5830 5829 5827 5825 5823 5821 5818 5816 5814 5813 5811 5810 5809 5809 5809 5808 5809 5809
5821 5822 5826 5828 5829 5830 5830 5829 5828 5827 5828 5827 5827 5827 5827 5827 5827 5826 5827 5827 5827 5827 5827 5827 5827 5828 5828 5828 5828 5828 5827 5825 5824 5823 5821 5819 5816 5814 5811 5809 5808 5806 5805 5803 5802 5802 5802 5802 5803
5816 5818 5820 5822 5823 5824 5825 5824 5823 5822 5822 5823 5822 5822 5822 5822 5822 5821 5822 5822 5822 5822 5822 5822 5823 5823 5823 5823 5823 5822 5822 5821 5819 5818 5816 5814 5812 5810 5807 5805 5803 5801 5799 5798 5796 5796 5796 5796 5797
5811 5812 5814 5816 5818 5819 5819 5820 5817 5817 5817 5817 5817 5817 5817 5817 5817 5817 5818 5818 5818 5818 5818 5818 5819 5818 5818 5817 5817 5817 5816 5815 5814 5813 5812 5810 5808 5806 5803 5801 5798 5796 5794 5792 5791 5790 5790 5790 5791
5805 5806 5808 5810 5811 5812 5813 5814 5811 5812 5812 5813 5813 5813 5813 5813 5813 5813 5813 5813 5813 5814 5814 5813 5814 5813 5813 5812 5812 5811 5811 5810 5809 5808 5807 5805 5804 5801 5799 5796 5794 5791 5789 5787 5786 5785 5785 5785 5785